Home   Weather   Newport   Past weeks

Flag for United Kingdom Past Weather in Newport, Wales, United Kingdom — Yesterday and Last 2 Weeks

Now
41 °F

Light rain. Mostly cloudy.


Feels Like: 41 °F
Forecast: 34 / 53 °F
Wind: 1 mph from North

Location: Bristol / Lulsgate

Current Time: Apr 27, 2017 at 12:31:37 am

Latest Report: Apr 26, 2017 at 11:50 pm


Visibility: N/A

Pressure: 30.15 "Hg

Humidity: 76%

Dew Point: 34 °F

Location of NewportLocation

Past Weather in Newport — Graph

°F

Newport Temperature Yesterday

Maximum temperature yesterday: 50 °F (at 2:20 pm)
Minimum temperature yesterday: 36 °F (at 12:20 am)
Average temperature yesterday: 42 °F

High & Low Weather Summary for the Past Weeks

 TemperatureHumidityPressure
High59 °F (Apr 22, 1:50 pm)100% (Apr 12, 10:50 pm)30.63 "Hg (Apr 12, 10:50 pm)
Low34 °F (Apr 19, 4:50 am)38% (Apr 19, 3:20 pm)29.95 "Hg (Apr 24, 3:50 pm)
Average47 °F76%30.24 "Hg
* Reported Apr 11 10:20 pm — Apr 26 10:50 pm, Newport, Weather by CustomWeather, © 2017

Note: Actual official high and low records may vary slightly from our data, if they occured in-between our weather recording intervals... More about our weather records

Advertising

Newport Weather History for the Previous 24 Hours

Scroll right to see more
 ConditionsComfort  
Time TempWeatherWind HumidityBarometerVisibility
10:50 pm
Wed, Apr 26
41 °FPassing clouds.3 mph70%30.15 "HgN/A
10:20 pm41 °FQuite cool.5 mph70%30.15 "HgN/A
9:50 pm43 °FQuite cool.7 mph66%30.12 "HgN/A
9:20 pm43 °FQuite cool.2 mph61%30.12 "HgN/A
8:50 pm43 °FQuite cool.5 mph61%30.12 "HgN/A
7:50 pm45 °FQuite cool.8 mph57%30.12 "HgN/A
7:20 pm45 °FQuite cool.8 mph53%30.09 "HgN/A
6:50 pm46 °FPassing clouds.7 mph50%30.09 "HgN/A
6:20 pm45 °FQuite cool.7 mph53%30.09 "HgN/A
5:50 pm46 °FCool.12 mph53%30.09 "HgN/A
5:20 pm46 °FPassing clouds.15 mph53%30.09 "HgN/A
4:50 pm48 °FCool.10 mph43%30.09 "HgN/A
4:20 pm48 °FCool.10 mph46%30.09 "HgN/A
3:50 pm48 °FCool.8 mph50%30.09 "HgN/A
3:20 pm50 °FSprinkles. Scattered clouds.13 mph50%30.09 "HgN/A
2:50 pm50 °FScattered clouds.8 mph43%30.09 "HgN/A
2:20 pm50 °FScattered clouds.12 mph47%30.09 "HgN/A
1:50 pm48 °FPartly sunny.12 mph46%30.09 "HgN/A
1:20 pm46 °FScattered clouds.13 mph53%30.09 "HgN/A
12:50 pm46 °FPartly sunny.12 mph50%30.09 "HgN/A
12:20 pm46 °FPartly sunny.13 mph57%30.09 "HgN/A
11:50 am46 °FPartly sunny.15 mph53%30.09 "HgN/A
10:50 am46 °FScattered clouds.12 mph57%30.09 "HgN/A
10:20 am43 °FPartly sunny.13 mph66%30.09 "HgN/A
9:50 am43 °FPartly sunny.15 mph66%30.09 "HgN/A
9:20 am41 °FPartly sunny.12 mph70%30.09 "HgN/A
8:50 am39 °FOvercast.15 mph70%30.09 "HgN/A
8:20 am39 °FMostly cloudy.13 mph75%30.09 "HgN/A
7:50 am39 °FOvercast.15 mph75%30.09 "HgN/A
7:20 am37 °FCloudy.10 mph81%30.07 "HgN/A
6:50 am37 °FMostly cloudy.10 mph81%30.07 "HgN/A
6:20 am37 °FOvercast.9 mph81%30.07 "HgN/A
5:50 am36 °FMostly cloudy.12 mph87%30.07 "HgN/A
5:20 am36 °FPassing clouds.9 mph81%30.04 "HgN/A
4:50 am36 °FPassing clouds.9 mph81%30.04 "HgN/A
4:20 am36 °FOvercast.9 mph87%30.04 "HgN/A
3:50 am36 °FOvercast.9 mph87%30.04 "HgN/A
3:20 am36 °FPassing clouds.10 mph87%30.04 "HgN/A
2:50 am36 °FChilly.9 mph87%30.04 "HgN/A
2:20 am36 °FChilly.9 mph87%30.04 "HgN/A
1:50 am36 °FChilly.9 mph87%30.04 "HgN/A
1:20 am36 °FChilly.6 mph93%30.04 "HgN/A
12:50 am36 °FPassing clouds.8 mph93%30.04 "HgN/A
12:20 am36 °FChilly.7 mph93%30.04 "HgN/A
Weather by CustomWeather, © 2017

See weather overviewHow to use our weather pages